Lid_Strength_Index
9 9 9 8 8 8 8 7 6 6 6 5 5 5 5 5 4 4 4 4 4 3 3 3 3 3 2 3 3 3 3 4 6 6 5 5 6 7 6 6 5 4 2
7 7 8 8 8 9 8 8 6 6 6 5 5 4 4 5 4 4 4 4 3 3 3 3 3 2 3 3 3 3 4 4 4 6 4 5 5 6 6 8 8 4 1
6 7 7 7 9 9 9 8 7 7 7 5 5 5 4 4 4 3 3 4 3 3 3 3 3 3 4 3 3 4 4 3 5 5 5 5 4 5 7 9 10 9 4
6 6 7 7 8 9 9 9 8 7 6 6 5 5 4 4 3 4 3 4 4 3 3 3 3 3 4 3 3 4 4 4 4 5 6 5 5 6 7 10 12 12 11
6 6 6 6 8 9 9 9 8 7 6 6 6 5 4 3 3 3 4 4 4 4 4 2 3 2 1 1 2 4 4 5 6 5 5 6 7 8 9 10 12 12 13
6 6 6 6 7 9 8 9 9 9 6 6 6 6 6 4 2 2 2 3 3 3 3 3 2 1 1 -0 -0 -0 0 3 5 4 5 6 8 9 9 10 11 12 13
7 6 6 6 7 8 8 9 10 10 9 7 7 6 6 5 4 3 2 3 3 3 3 3 2 2 1 1 1 2 2 1 0 2 5 8 9 10 10 11 11 12 14
7 7 6 6 6 7 7 9 10 10 10 9 7 7 6 5 3 3 2 3 4 4 3 3 3 2 2 4 6 7 7 8 8 8 9 10 10 10 10 11 11 12 12
7 8 7 6 7 6 7 8 9 10 10 10 9 7 7 7 5 5 6 6 6 5 4 3 3 3 3 4 7 9 8 7 5 5 5 5 6 7 9 10 12 13 13
8 7 7 7 7 8 8 8 8 9 9 9 10 8 5 7 5 6 8 9 9 9 8 6 5 6 5 6 10 10 11 11 11 11 10 8 8 7 7 10 10 12 13
7 7 7 8 7 8 8 7 8 8 8 9 10 9 7 6 5 4 5 8 9 9 8 8 7 5 5 6 7 10 11 10 10 11 11 11 10 10 10 9 9 10 12
8 8 8 8 8 8 9 9 9 9 9 10 10 10 10 8 5 5 4 4 5 7 8 7 6 5 5 5 7 7 8 9 11 11 11 12 11 11 10 10 10 11 10
9 9 9 8 8 8 9 9 10 10 10 11 11 11 11 10 9 6 5 4 4 6 6 5 4 5 5 6 7 7 8 10 11 11 12 12 11 11 11 11 11 11 11
9 9 9 9 9 9 9 9 10 10 11 10 10 11 10 10 10 9 9 8 5 6 5 6 5 5 4 6 7 7 8 9 11 11 12 12 11 11 12 13 13 14 13
9 9 10 9 10 10 9 9 9 9 8 10 10 10 10 10 8 7 7 7 7 6 6 8 8 9 9 9 9 8 8 9 10 10 11 11 11 11 12 12 12 13 13
9 10 9 10 10 10 11 10 7 7 7 7 7 8 9 7 6 6 5 4 4 4 7 9 9 9 9 10 10 10 9 9 10 9 10 10 10 10 10 10 11 12 13
10 10 10 10 10 10 11 11 12 11 7 7 7 7 7 7 7 6 5 4 4 6 8 9 9 9 9 9 9 9 9 9 9 9 9 9 9 9 10 10 11 11 11
9 8 10 10 10 10 11 11 12 12 12 12 8 8 8 7 7 7 6 6 9 8 8 9 9 9 9 10 10 10 10 10 10 10 10 10 10 10 10 11 11 11 11
9 9 10 10 10 9 11 11 12 12 12 12 11 9 9 8 8 7 7 10 10 10 9 9 8 9 9 9 9 10 10 10 11 11 11 11 11 11 12 11 11 9 11
9 7 8 10 10 11 11 12 12 12 12 11 11 11 11 10 11 11 10 10 10 10 9 9 9 8 9 9 10 10 11 11 11 11 11 11 11 12 12 12 12 13 13
9 9 8 10 11 11 12 12 12 12 12 11 11 9 8 11 11 11 10 10 10 10 9 9 10 10 9 9 10 10 11 11 11 12 12 12 12 12 12 12 12 12 12
9 10 10 10 10 11 12 12 12 12 12 11 11 10 8 11 11 11 11 10 10 9 9 9 9 10 10 10 11 11 12 12 11 11 12 11 11 11 11 12 12 11 11
9 10 10 10 10 10 12 12 12 12 12 11 11 11 10 11 11 11 11 10 10 9 9 9 10 10 10 10 10 11 11 11 11 10 11 11 11 11 11 11 12 12 11
9 10 10 11 11 12 12 12 12 11 11 11 11 11 11 11 11 11 11 11 10 10 10 10 10 10 10 10 10 10 10 10 9 9 9 10 11 11 12 12 12 11 12
10 10 11 11 12 12 12 12 12 12 12 11 11 11 11 11 11 11 11 11 11 10 10 11 11 10 10 10 10 9 8 8 9 9 10 11 11 11 12 12 12 12 12
10 10 11 11 12 12 12 12 12 12 12 11 11 12 11 11 11 11 11 11 11 11 11 10 10 10 10 10 9 8 8 8 8 8 10 10 11 11 12 12 12 12 12